Weather Roundup
Issued by NWS

Home | Current Version | Previous Version | Graphics & Text | Print | Product List | Glossary Off
Versions: 1 2 3 4 5 6 7 8 9 10 11 12 13 14 15 16 17 18 19 20 21 22 23 24 25 26 27 28 29 30 31 32 33 34 35 36 37 38 39 40 41 42 43 44 45 46 47 48 49 50

000
NZUS93 KARX 170410
HRRWXR

CURRENT HOURLY OBSERVATIONS ACROSS
MUCH OF THE UPPER MISSISSIPPI VALLEY
NATIONAL WEATHER SERVICE LA CROSSE WI
1100 PM CDT MON OCT 16 2017


...SOUTHEAST MINNESOTA...


CITY           SKY/WX    TMP DP  RH WIND       PRES   REMARKS
ROCHESTER      CLEAR     55  39  54 S17       30.03F
ROCHESTER/MAYO FAIR      58  36  44 S12G20    30.02F
WINONA         CLEAR     55  36  47 SW7       30.03F
AUSTIN         CLEAR     52  37  58 S10       30.04F
ALBERT LEA     CLEAR     59  41  51 S8        30.03S
DODGE CENTER   CLEAR     55  37  50 S15G22    30.01F
PRESTON        CLEAR     54  37  52 SW14      30.05F
OWATONNA       CLEAR     55  39  54 S13       30.00F
FARIBAULT      CLEAR     54  39  58 S3        29.99F
$$

...ELSEWHERE IN MINNESOTA...


CITY           SKY/WX    TMP DP  RH WIND       PRES   REMARKS
MINNEAPOLIS    CLEAR     58  39  49 SW6       29.97R
INTNL FALLS    CLOUDY    47  36  65 SW6       29.82R
DULUTH         CLOUDY    50  37  61 SW14      29.88F
RED WING       CLEAR     57  34  41 CALM      29.98S
REDWOOD FALLS  CLEAR     53  38  56 SW8       29.97R
MANKATO        CLEAR     54  39  57 S9        29.98F
WORTHINGTON    CLEAR     58  39  49 SW12      30.03R
FAIRMONT       PTCLDY    55  40  56 SW10      30.01S
$$

...SOUTHWEST WISCONSIN...


CITY           SKY/WX    TMP DP  RH WIND       PRES   REMARKS
LA CROSSE      CLEAR     55  41  59 S15       30.05F
PRAIRIE DU CHI CLEAR     55  37  50 CALM      30.11F
BOSCOBEL       PTCLDY    43  39  86 CALM      30.12F
LONE ROCK      CLEAR     45  38  76 CALM      30.13F
PLATTEVILLE    CLOUDY    48  39  71 S7        30.15F
FORT MC COY    CLOUDY    53  37  54 SW3       30.07F
MAUSTON-NEW LI CLOUDY    50  37  59 S8        30.08F
VIROQUA        FAIR      51  38  60 CALM      30.10S
WIS DELLS      CLEAR     49  35  57 SW8       30.11F
$$

...ELSEWHERE IN WISCONSIN...


CITY           SKY/WX    TMP DP  RH WIND       PRES   REMARKS
MILWAUKEE      PTCLDY    50  37  61 S6        30.17S
MADISON        CLEAR     51  37  58 SW3       30.14F
GREEN BAY      CLEAR     48  43  82 S9        30.09F
EAU CLAIRE     CLEAR     48  37  65 S7        29.99F
BLACK RVR FLS  FAIR      35  35 100 CALM      30.04F
MEDFORD        CLEAR     49  35  58 S10G17    30.02S
WAUSAU         CLEAR     48  38  68 S6        30.04F
WIS RAPIDS     CLEAR     48  37  65 S9        30.08F
MARSHFIELD     CLEAR     44  34  67 S7        30.04F
RICE LAKE      CLEAR     45  36  69 E3        29.99S
$$

...NORTHEAST IOWA...


CITY           SKY/WX    TMP DP  RH WIND       PRES   REMARKS
WATERLOO       CLOUDY    53  37  54 S12       30.11F
DUBUQUE        CLEAR     48  38  68 SW12      30.15F
DECORAH        CLOUDY    55  37  50 S12G21    30.07F
MASON CITY     CLOUDY    56  38  50 S14G23    30.07F
CHARLES CITY   PTCLDY    54  37  54 S10G16    30.09F
OELWEIN        CLEAR     52  39  62 S10       30.13F
$$

...ELSEWHERE IN IOWA...


CITY           SKY/WX    TMP DP  RH WIND       PRES   REMARKS
DES MOINES     CLOUDY    56  41  57 S10       30.14F
IOWA CITY      PTCLDY    55  38  52 S9        30.20S
FORT DODGE     CLOUDY    56  40  55 S15       30.08F
MARSHALLTOWN   CLOUDY    56  39  53 S12       30.13S
CEDAR RAPIDS   CLOUDY    51  38  60 S9        30.17S
$$

...NORTHERN ILLINOIS...


CITY           SKY/WX    TMP DP  RH WIND       PRES   REMARKS
CHICAGO-OHARE  CLEAR     51  38  60 SW8       30.20S
CHICAGO-MIDWAY CLEAR     51  40  65 SW6       30.22R
MOLINE         CLEAR     53  37  54 S7        30.20S
ROCKFORD       CLEAR     45  38  76 S6        30.21S
PEORIA         CLEAR     49  40  71 SW3       30.25S
$$

NOTE: "FAIR" INDICATES FEW OR NO CLOUDS BELOW 12,000 FEET WITH NO
SIGNIFICANT WEATHER AND/OR OBSTRUCTIONS TO VISIBILITY. WIND
SPEEDS ARE IN MILES-PER-HOUR.




USA.gov is the U.S. government's official web portal to all federal, state and local government web resources and services.